Year,Month,Day,Hour,Minute,Value (Times are PST for insolation in W/m^2)
2007,06,13,00,00,0.00
2007,06,13,00,01,0.00
2007,06,13,00,02,0.00
2007,06,13,00,03,0.00
2007,06,13,00,04,0.00
2007,06,13,00,05,0.00
2007,06,13,00,06,0.00
2007,06,13,00,07,0.00
2007,06,13,00,08,0.00
2007,06,13,00,09,0.00
2007,06,13,00,10,0.00
2007,06,13,00,11,0.00
2007,06,13,00,12,0.00
2007,06,13,00,13,0.00
2007,06,13,00,14,0.00
2007,06,13,00,15,0.00
2007,06,13,00,16,0.00
2007,06,13,00,17,0.00
2007,06,13,00,18,0.00
2007,06,13,00,19,0.00
2007,06,13,00,20,0.00
2007,06,13,00,21,0.00
2007,06,13,00,22,0.00
2007,06,13,00,23,0.00
2007,06,13,00,24,0.00
2007,06,13,00,25,0.00
2007,06,13,00,26,0.00
2007,06,13,00,27,0.00
2007,06,13,00,28,0.00
2007,06,13,00,29,0.00
2007,06,13,00,30,0.00
2007,06,13,00,31,0.00
2007,06,13,00,32,0.00
2007,06,13,00,33,0.00
2007,06,13,00,34,0.00
2007,06,13,00,35,0.00
2007,06,13,00,36,0.00
2007,06,13,00,37,0.00
2007,06,13,00,38,0.00
2007,06,13,00,39,0.00
2007,06,13,00,40,0.00
2007,06,13,00,41,0.00
2007,06,13,00,42,0.00
2007,06,13,00,43,0.00
2007,06,13,00,44,0.00
2007,06,13,00,45,0.00
2007,06,13,00,46,0.00
2007,06,13,00,47,0.00
2007,06,13,00,48,0.00
2007,06,13,00,49,0.00
2007,06,13,00,50,0.00
2007,06,13,00,51,0.00
2007,06,13,00,52,0.00
2007,06,13,00,53,0.00
2007,06,13,00,54,0.00
2007,06,13,00,55,0.00
2007,06,13,00,56,0.00
2007,06,13,00,57,0.00
2007,06,13,00,58,0.00
2007,06,13,00,59,0.00
2007,06,13,01,00,0.00
2007,06,13,01,01,0.00
2007,06,13,01,02,0.00
2007,06,13,01,03,0.00
2007,06,13,01,04,0.00
2007,06,13,01,05,0.00
2007,06,13,01,06,0.00
2007,06,13,01,07,0.00
2007,06,13,01,08,0.00
2007,06,13,01,09,0.00
2007,06,13,01,10,0.00
2007,06,13,01,11,0.00
2007,06,13,01,12,0.00
2007,06,13,01,13,0.00
2007,06,13,01,14,0.00
2007,06,13,01,15,0.00
2007,06,13,01,16,0.00
2007,06,13,01,17,0.00
2007,06,13,01,18,0.00
2007,06,13,01,19,0.00
2007,06,13,01,20,0.00
2007,06,13,01,21,0.00
2007,06,13,01,22,0.00
2007,06,13,01,23,0.00
2007,06,13,01,24,0.00
2007,06,13,01,25,0.00
2007,06,13,01,26,0.00
2007,06,13,01,27,0.00
2007,06,13,01,28,0.00
2007,06,13,01,29,0.00
2007,06,13,01,30,0.00
2007,06,13,01,31,0.00
2007,06,13,01,32,0.00
2007,06,13,01,33,0.00
2007,06,13,01,34,0.00
2007,06,13,01,35,0.00
2007,06,13,01,36,0.00
2007,06,13,01,37,0.00
2007,06,13,01,38,0.00
2007,06,13,01,39,0.00
2007,06,13,01,40,0.00
2007,06,13,01,41,0.00
2007,06,13,01,42,0.00
2007,06,13,01,43,0.00
2007,06,13,01,44,0.00
2007,06,13,01,45,0.00
2007,06,13,01,46,0.00
2007,06,13,01,47,0.00
2007,06,13,01,48,0.00
2007,06,13,01,49,0.00
2007,06,13,01,50,0.00
2007,06,13,01,51,0.00
2007,06,13,01,52,0.00
2007,06,13,01,53,0.00
2007,06,13,01,54,0.00
2007,06,13,01,55,0.00
2007,06,13,01,56,0.00
2007,06,13,01,57,0.00
2007,06,13,01,58,0.00
2007,06,13,01,59,0.00
2007,06,13,02,00,0.00
2007,06,13,02,01,0.00
2007,06,13,02,02,0.00
2007,06,13,02,03,0.00
2007,06,13,02,04,0.00
2007,06,13,02,05,0.00
2007,06,13,02,06,0.00
2007,06,13,02,07,0.00
2007,06,13,02,08,0.00
2007,06,13,02,09,0.00
2007,06,13,02,10,0.00
2007,06,13,02,11,0.00
2007,06,13,02,12,0.00
2007,06,13,02,13,0.00
2007,06,13,02,14,0.00
2007,06,13,02,15,0.00
2007,06,13,02,16,0.00
2007,06,13,02,17,0.00
2007,06,13,02,18,0.00
2007,06,13,02,19,0.00
2007,06,13,02,20,0.00
2007,06,13,02,21,0.00
2007,06,13,02,22,0.00
2007,06,13,02,23,0.00
2007,06,13,02,24,0.00
2007,06,13,02,25,0.00
2007,06,13,02,26,0.00
2007,06,13,02,27,0.00
2007,06,13,02,28,0.00
2007,06,13,02,29,0.00
2007,06,13,02,30,0.00
2007,06,13,02,31,0.00
2007,06,13,02,32,0.00
2007,06,13,02,33,0.00
2007,06,13,02,34,0.00
2007,06,13,02,35,0.00
2007,06,13,02,36,0.00
2007,06,13,02,37,0.00
2007,06,13,02,38,0.00
2007,06,13,02,39,0.00
2007,06,13,02,40,0.00
2007,06,13,02,41,0.00
2007,06,13,02,42,0.00
2007,06,13,02,43,0.00
2007,06,13,02,44,0.00
2007,06,13,02,45,0.00
2007,06,13,02,46,0.00
2007,06,13,02,47,0.00
2007,06,13,02,48,0.00
2007,06,13,02,49,0.00
2007,06,13,02,50,0.00
2007,06,13,02,51,0.00
2007,06,13,02,52,0.00
2007,06,13,02,53,0.00
2007,06,13,02,54,0.00
2007,06,13,02,55,0.00
2007,06,13,02,56,0.00
2007,06,13,02,57,0.00
2007,06,13,02,58,0.00
2007,06,13,02,59,0.00
2007,06,13,03,00,0.00
2007,06,13,03,01,0.00
2007,06,13,03,02,0.00
2007,06,13,03,03,0.00
2007,06,13,03,04,0.00
2007,06,13,03,05,0.00
2007,06,13,03,06,0.00
2007,06,13,03,07,0.00
2007,06,13,03,08,0.00
2007,06,13,03,09,0.00
2007,06,13,03,10,0.00
2007,06,13,03,11,0.00
2007,06,13,03,12,0.00
2007,06,13,03,13,0.00
2007,06,13,03,14,0.00
2007,06,13,03,15,0.00
2007,06,13,03,16,0.00
2007,06,13,03,17,0.00
2007,06,13,03,18,0.00
2007,06,13,03,19,0.00
2007,06,13,03,20,0.00
2007,06,13,03,21,0.00
2007,06,13,03,22,0.00
2007,06,13,03,23,0.00
2007,06,13,03,24,0.00
2007,06,13,03,25,0.00
2007,06,13,03,26,0.00
2007,06,13,03,27,0.00
2007,06,13,03,28,0.00
2007,06,13,03,29,0.00
2007,06,13,03,30,0.00
2007,06,13,03,31,0.00
2007,06,13,03,32,0.00
2007,06,13,03,33,0.00
2007,06,13,03,34,0.00
2007,06,13,03,35,0.00
2007,06,13,03,36,0.00
2007,06,13,03,37,0.00
2007,06,13,03,38,0.00
2007,06,13,03,39,0.00
2007,06,13,03,40,0.00
2007,06,13,03,41,0.00
2007,06,13,03,42,0.00
2007,06,13,03,43,0.00
2007,06,13,03,44,0.00
2007,06,13,03,45,0.00
2007,06,13,03,46,0.00
2007,06,13,03,47,0.00
2007,06,13,03,48,0.00
2007,06,13,03,49,0.00
2007,06,13,03,50,0.00
2007,06,13,03,51,0.00
2007,06,13,03,52,0.00
2007,06,13,03,53,0.00
2007,06,13,03,54,0.00
2007,06,13,03,55,0.00
2007,06,13,03,56,0.00
2007,06,13,03,57,0.00
2007,06,13,03,58,0.00
2007,06,13,03,59,0.00
2007,06,13,04,00,0.00
2007,06,13,04,01,0.00
2007,06,13,04,02,0.00
2007,06,13,04,03,0.00
2007,06,13,04,04,0.00
2007,06,13,04,05,0.00
2007,06,13,04,06,0.00
2007,06,13,04,07,0.00
2007,06,13,04,08,0.00
2007,06,13,04,09,0.00
2007,06,13,04,10,0.00
2007,06,13,04,11,0.00
2007,06,13,04,12,0.00
2007,06,13,04,13,0.00
2007,06,13,04,14,0.00
2007,06,13,04,15,0.00
2007,06,13,04,16,0.00
2007,06,13,04,17,0.00
2007,06,13,04,18,0.00
2007,06,13,04,19,0.00
2007,06,13,04,20,0.00
2007,06,13,04,21,0.00
2007,06,13,04,22,0.00
2007,06,13,04,23,0.00
2007,06,13,04,24,0.00
2007,06,13,04,25,0.00
2007,06,13,04,26,0.00
2007,06,13,04,27,0.00
2007,06,13,04,28,0.00
2007,06,13,04,29,0.00
2007,06,13,04,30,0.00
2007,06,13,04,31,0.00
2007,06,13,04,32,0.00
2007,06,13,04,33,0.00
2007,06,13,04,34,0.00
2007,06,13,04,35,0.00
2007,06,13,04,36,0.00
2007,06,13,04,37,0.00
2007,06,13,04,38,0.00
2007,06,13,04,39,0.00
2007,06,13,04,40,0.00
2007,06,13,04,41,0.00
2007,06,13,04,42,0.00
2007,06,13,04,43,0.00
2007,06,13,04,44,0.00
2007,06,13,04,45,0.00
2007,06,13,04,46,0.00
2007,06,13,04,47,0.00
2007,06,13,04,48,0.00
2007,06,13,04,49,0.00
2007,06,13,04,50,0.00
2007,06,13,04,51,0.00
2007,06,13,04,52,0.00
2007,06,13,04,53,0.00
2007,06,13,04,54,0.00
2007,06,13,04,55,0.00
2007,06,13,04,56,0.00
2007,06,13,04,57,0.00
2007,06,13,04,58,0.00
2007,06,13,04,59,0.00
2007,06,13,05,00,0.00
2007,06,13,05,01,0.00
2007,06,13,05,02,0.00
2007,06,13,05,03,0.00
2007,06,13,05,04,0.00
2007,06,13,05,05,0.00
2007,06,13,05,06,0.00
2007,06,13,05,07,0.00
2007,06,13,05,08,0.00
2007,06,13,05,09,0.00
2007,06,13,05,10,0.00
2007,06,13,05,11,0.00
2007,06,13,05,12,3.20
2007,06,13,05,13,5.00
2007,06,13,05,14,1.80
2007,06,13,05,15,0.00
2007,06,13,05,16,0.00
2007,06,13,05,17,3.50
2007,06,13,05,18,5.00
2007,06,13,05,19,5.00
2007,06,13,05,20,5.00
2007,06,13,05,21,5.00
2007,06,13,05,22,5.00
2007,06,13,05,23,5.00
2007,06,13,05,24,6.70
2007,06,13,05,25,7.00
2007,06,13,05,26,8.80
2007,06,13,05,27,9.00
2007,06,13,05,28,9.00
2007,06,13,05,29,10.90
2007,06,13,05,30,11.00
2007,06,13,05,31,11.00
2007,06,13,05,32,11.10
2007,06,13,05,33,12.00
2007,06,13,05,34,12.00
2007,06,13,05,35,12.00
2007,06,13,05,36,12.30
2007,06,13,05,37,14.00
2007,06,13,05,38,14.40
2007,06,13,05,39,16.00
2007,06,13,05,40,16.00
2007,06,13,05,41,16.00
2007,06,13,05,42,16.00
2007,06,13,05,43,16.00
2007,06,13,05,44,16.00
2007,06,13,05,45,16.60
2007,06,13,05,46,18.00
2007,06,13,05,47,18.00
2007,06,13,05,48,18.40
2007,06,13,05,49,19.00
2007,06,13,05,50,19.80
2007,06,13,05,51,21.90
2007,06,13,05,52,23.90
2007,06,13,05,53,25.50
2007,06,13,05,54,27.10
2007,06,13,05,55,29.00
2007,06,13,05,56,30.00
2007,06,13,05,57,30.00
2007,06,13,05,58,30.00
2007,06,13,05,59,30.00
2007,06,13,06,00,31.30
2007,06,13,06,01,30.70
2007,06,13,06,02,31.30
2007,06,13,06,03,32.00
2007,06,13,06,04,32.00
2007,06,13,06,05,32.00
2007,06,13,06,06,32.00
2007,06,13,06,07,32.80
2007,06,13,06,08,34.60
2007,06,13,06,09,36.70
2007,06,13,06,10,39.40
2007,06,13,06,11,43.40
2007,06,13,06,12,44.00
2007,06,13,06,13,44.00
2007,06,13,06,14,44.00
2007,06,13,06,15,46.80
2007,06,13,06,16,49.00
2007,06,13,06,17,49.00
2007,06,13,06,18,49.10
2007,06,13,06,19,51.00
2007,06,13,06,20,51.00
2007,06,13,06,21,51.20
2007,06,13,06,22,53.30
2007,06,13,06,23,56.40
2007,06,13,06,24,60.50
2007,06,13,06,25,63.30
2007,06,13,06,26,64.60
2007,06,13,06,27,62.80
2007,06,13,06,28,62.00
2007,06,13,06,29,62.20
2007,06,13,06,30,62.80
2007,06,13,06,31,62.00
2007,06,13,06,32,62.30
2007,06,13,06,33,64.40
2007,06,13,06,34,68.10
2007,06,13,06,35,70.70
2007,06,13,06,36,72.00
2007,06,13,06,37,72.80
2007,06,13,06,38,74.00
2007,06,13,06,39,72.00
2007,06,13,06,40,69.50
2007,06,13,06,41,67.90
2007,06,13,06,42,65.00
2007,06,13,06,43,62.50
2007,06,13,06,44,62.00
2007,06,13,06,45,62.60
2007,06,13,06,46,65.50
2007,06,13,06,47,68.90
2007,06,13,06,48,73.90
2007,06,13,06,49,80.70
2007,06,13,06,50,87.90
2007,06,13,06,51,98.60
2007,06,13,06,52,110.20
2007,06,13,06,53,116.80
2007,06,13,06,54,119.60
2007,06,13,06,55,118.40
2007,06,13,06,56,118.00
2007,06,13,06,57,113.80
2007,06,13,06,58,106.20
2007,06,13,06,59,100.80
2007,06,13,07,00,95.50
2007,06,13,07,01,90.50
2007,06,13,07,02,90.00
2007,06,13,07,03,90.00
2007,06,13,07,04,90.00
2007,06,13,07,05,95.00
2007,06,13,07,06,97.30
2007,06,13,07,07,104.60
2007,06,13,07,08,116.90
2007,06,13,07,09,125.70
2007,06,13,07,10,132.00
2007,06,13,07,11,130.90
2007,06,13,07,12,124.70
2007,06,13,07,13,123.40
2007,06,13,07,14,126.80
2007,06,13,07,15,132.50
2007,06,13,07,16,127.20
2007,06,13,07,17,122.90
2007,06,13,07,18,114.50
2007,06,13,07,19,106.10
2007,06,13,07,20,104.30
2007,06,13,07,21,111.30
2007,06,13,07,22,123.80
2007,06,13,07,23,123.00
2007,06,13,07,24,119.10
2007,06,13,07,25,115.60
2007,06,13,07,26,112.10
2007,06,13,07,27,108.10
2007,06,13,07,28,106.00
2007,06,13,07,29,110.30
2007,06,13,07,30,113.00
2007,06,13,07,31,113.60
2007,06,13,07,32,116.20
2007,06,13,07,33,115.50
2007,06,13,07,34,113.40
2007,06,13,07,35,116.20
2007,06,13,07,36,125.80
2007,06,13,07,37,128.60
2007,06,13,07,38,129.40
2007,06,13,07,39,134.90
2007,06,13,07,40,130.20
2007,06,13,07,41,128.00
2007,06,13,07,42,133.10
2007,06,13,07,43,139.70
2007,06,13,07,44,141.00
2007,06,13,07,45,141.90
2007,06,13,07,46,141.10
2007,06,13,07,47,145.50
2007,06,13,07,48,169.80
2007,06,13,07,49,178.60
2007,06,13,07,50,178.10
2007,06,13,07,51,192.20
2007,06,13,07,52,207.90
2007,06,13,07,53,248.80
2007,06,13,07,54,297.80
2007,06,13,07,55,226.70
2007,06,13,07,56,262.30
2007,06,13,07,57,255.00
2007,06,13,07,58,195.00
2007,06,13,07,59,195.00
2007,06,13,08,00,220.00
2007,06,13,08,01,323.60
2007,06,13,08,02,340.90
2007,06,13,08,03,369.80
2007,06,13,08,04,407.00
2007,06,13,08,05,335.90
2007,06,13,08,06,328.40
2007,06,13,08,07,342.30
2007,06,13,08,08,342.50
2007,06,13,08,09,338.40
2007,06,13,08,10,339.00
2007,06,13,08,11,368.60
2007,06,13,08,12,443.10
2007,06,13,08,13,480.00
2007,06,13,08,14,480.00
2007,06,13,08,15,524.00
2007,06,13,08,16,569.00
2007,06,13,08,17,568.90
2007,06,13,08,18,568.00
2007,06,13,08,19,480.40
2007,06,13,08,20,380.00
2007,06,13,08,21,327.40
2007,06,13,08,22,342.20
2007,06,13,08,23,359.00
2007,06,13,08,24,389.90
2007,06,13,08,25,381.70
2007,06,13,08,26,374.00
2007,06,13,08,27,582.50
2007,06,13,08,28,652.00
2007,06,13,08,29,594.40
2007,06,13,08,30,580.00
2007,06,13,08,31,580.00
2007,06,13,08,32,580.00
2007,06,13,08,33,487.40
2007,06,13,08,34,521.40
2007,06,13,08,35,527.00
2007,06,13,08,36,473.80
2007,06,13,08,37,471.00
2007,06,13,08,38,638.00
2007,06,13,08,39,547.00
2007,06,13,08,40,500.20
2007,06,13,08,41,448.00
2007,06,13,08,42,448.00
2007,06,13,08,43,448.00
2007,06,13,08,44,448.00
2007,06,13,08,45,418.80
2007,06,13,08,46,262.30
2007,06,13,08,47,315.00
2007,06,13,08,48,315.00
2007,06,13,08,49,315.00
2007,06,13,08,50,392.80
2007,06,13,08,51,626.00
2007,06,13,08,52,531.50
2007,06,13,08,53,311.00
2007,06,13,08,54,393.20
2007,06,13,08,55,559.20
2007,06,13,08,56,606.00
2007,06,13,08,57,580.00
2007,06,13,08,58,508.20
2007,06,13,08,59,446.90
2007,06,13,09,00,466.20
2007,06,13,09,01,528.00
2007,06,13,09,02,548.00
2007,06,13,09,03,548.00
2007,06,13,09,04,568.30
2007,06,13,09,05,603.30
2007,06,13,09,06,617.00
2007,06,13,09,07,617.00
2007,06,13,09,08,458.40
2007,06,13,09,09,373.00
2007,06,13,09,10,408.10
2007,06,13,09,11,429.80
2007,06,13,09,12,398.80
2007,06,13,09,13,385.00
2007,06,13,09,14,470.50
2007,06,13,09,15,479.80
2007,06,13,09,16,480.50
2007,06,13,09,17,432.40
2007,06,13,09,18,490.50
2007,06,13,09,19,560.80
2007,06,13,09,20,489.10
2007,06,13,09,21,480.00
2007,06,13,09,22,480.00
2007,06,13,09,23,392.80
2007,06,13,09,24,388.00
2007,06,13,09,25,388.00
2007,06,13,09,26,388.00
2007,06,13,09,27,388.00
2007,06,13,09,28,388.00
2007,06,13,09,29,388.00
2007,06,13,09,30,388.00
2007,06,13,09,31,371.50
2007,06,13,09,32,223.00
2007,06,13,09,33,221.60
2007,06,13,09,34,210.10
2007,06,13,09,35,186.00
2007,06,13,09,36,181.60
2007,06,13,09,37,193.00
2007,06,13,09,38,193.00
2007,06,13,09,39,183.10
2007,06,13,09,40,169.60
2007,06,13,09,41,222.40
2007,06,13,09,42,281.80
2007,06,13,09,43,261.50
2007,06,13,09,44,217.60
2007,06,13,09,45,209.70
2007,06,13,09,46,208.20
2007,06,13,09,47,236.90
2007,06,13,09,48,287.90
2007,06,13,09,49,292.50
2007,06,13,09,50,238.40
2007,06,13,09,51,211.00
2007,06,13,09,52,225.30
2007,06,13,09,53,237.00
2007,06,13,09,54,237.00
2007,06,13,09,55,229.20
2007,06,13,09,56,239.90
2007,06,13,09,57,252.60
2007,06,13,09,58,258.50
2007,06,13,09,59,237.90
2007,06,13,10,00,219.40
2007,06,13,10,01,228.20
2007,06,13,10,02,264.00
2007,06,13,10,03,272.00
2007,06,13,10,04,333.50
2007,06,13,10,05,415.10
2007,06,13,10,06,427.00
2007,06,13,10,07,269.50
2007,06,13,10,08,221.30
2007,06,13,10,09,213.50
2007,06,13,10,10,211.10
2007,06,13,10,11,217.70
2007,06,13,10,12,239.00
2007,06,13,10,13,258.00
2007,06,13,10,14,322.60
2007,06,13,10,15,412.20
2007,06,13,10,16,447.70
2007,06,13,10,17,392.40
2007,06,13,10,18,446.90
2007,06,13,10,19,523.80
2007,06,13,10,20,469.80
2007,06,13,10,21,417.00
2007,06,13,10,22,417.00
2007,06,13,10,23,432.20
2007,06,13,10,24,478.00
2007,06,13,10,25,478.00
2007,06,13,10,26,478.00
2007,06,13,10,27,593.50
2007,06,13,10,28,838.10
2007,06,13,10,29,791.90
2007,06,13,10,30,814.00
2007,06,13,10,31,814.00
2007,06,13,10,32,814.00
2007,06,13,10,33,814.00
2007,06,13,10,34,814.00
2007,06,13,10,35,814.00
2007,06,13,10,36,814.00
2007,06,13,10,37,814.00
2007,06,13,10,38,814.00
2007,06,13,10,39,814.00
2007,06,13,10,40,814.00
2007,06,13,10,41,814.00
2007,06,13,10,42,552.80
2007,06,13,10,43,394.60
2007,06,13,10,44,418.00
2007,06,13,10,45,364.20
2007,06,13,10,46,317.90
2007,06,13,10,47,296.00
2007,06,13,10,48,286.80
2007,06,13,10,49,345.80
2007,06,13,10,50,426.00
2007,06,13,10,51,495.20
2007,06,13,10,52,508.00
2007,06,13,10,53,508.00
2007,06,13,10,54,508.00
2007,06,13,10,55,509.80
2007,06,13,10,56,510.00
2007,06,13,10,57,510.00
2007,06,13,10,58,510.00
2007,06,13,10,59,510.00
2007,06,13,11,00,508.10
2007,06,13,11,01,473.00
2007,06,13,11,02,462.60
2007,06,13,11,03,267.30
2007,06,13,11,04,288.00
2007,06,13,11,05,335.30
2007,06,13,11,06,746.00
2007,06,13,11,07,661.00
2007,06,13,11,08,661.00
2007,06,13,11,09,661.00
2007,06,13,11,10,577.00
2007,06,13,11,11,325.00
2007,06,13,11,12,325.00
2007,06,13,11,13,374.50
2007,06,13,11,14,490.00
2007,06,13,11,15,490.00
2007,06,13,11,16,490.00
2007,06,13,11,17,432.00
2007,06,13,11,18,339.80
2007,06,13,11,19,339.20
2007,06,13,11,20,338.50
2007,06,13,11,21,327.00
2007,06,13,11,22,327.00
2007,06,13,11,23,353.50
2007,06,13,11,24,395.00
2007,06,13,11,25,410.00
2007,06,13,11,26,494.70
2007,06,13,11,27,520.80
2007,06,13,11,28,461.40
2007,06,13,11,29,381.00
2007,06,13,11,30,350.10
2007,06,13,11,31,355.00
2007,06,13,11,32,355.00
2007,06,13,11,33,355.00
2007,06,13,11,34,338.10
2007,06,13,11,35,373.20
2007,06,13,11,36,387.00
2007,06,13,11,37,387.00
2007,06,13,11,38,561.40
2007,06,13,11,39,605.00
2007,06,13,11,40,408.70
2007,06,13,11,41,388.50
2007,06,13,11,42,347.70
2007,06,13,11,43,282.40
2007,06,13,11,44,286.50
2007,06,13,11,45,345.00
2007,06,13,11,46,348.00
2007,06,13,11,47,348.00
2007,06,13,11,48,348.00
2007,06,13,11,49,344.20
2007,06,13,11,50,272.00
2007,06,13,11,51,272.00
2007,06,13,11,52,272.00
2007,06,13,11,53,272.00
2007,06,13,11,54,391.50
2007,06,13,11,55,1071.80
2007,06,13,11,56,1089.60
2007,06,13,11,57,1116.00
2007,06,13,11,58,1116.00
2007,06,13,11,59,1116.00
2007,06,13,12,00,1116.00
2007,06,13,12,01,1116.00
2007,06,13,12,02,1056.50
2007,06,13,12,03,914.50
2007,06,13,12,04,891.00
2007,06,13,12,05,966.80
2007,06,13,12,06,977.20
2007,06,13,12,07,982.80
2007,06,13,12,08,1016.80
2007,06,13,12,09,1018.00
2007,06,13,12,10,995.00
2007,06,13,12,11,914.70
2007,06,13,12,12,849.00
2007,06,13,12,13,849.00
2007,06,13,12,14,849.00
2007,06,13,12,15,1036.80
2007,06,13,12,16,1101.60
2007,06,13,12,17,1069.00
2007,06,13,12,18,1069.00
2007,06,13,12,19,1069.00
2007,06,13,12,20,1069.00
2007,06,13,12,21,566.50
2007,06,13,12,22,400.50
2007,06,13,12,23,401.00
2007,06,13,12,24,668.20
2007,06,13,12,25,735.00
2007,06,13,12,26,735.00
2007,06,13,12,27,735.00
2007,06,13,12,28,735.00
2007,06,13,12,29,1019.20
2007,06,13,12,30,1049.40
2007,06,13,12,31,1066.20
2007,06,13,12,32,1102.20
2007,06,13,12,33,1132.00
2007,06,13,12,34,1171.00
2007,06,13,12,35,1115.50
2007,06,13,12,36,1148.20
2007,06,13,12,37,1190.00
2007,06,13,12,38,1190.00
2007,06,13,12,39,1190.00
2007,06,13,12,40,1190.00
2007,06,13,12,41,1074.50
2007,06,13,12,42,420.00
2007,06,13,12,43,420.00
2007,06,13,12,44,426.50
2007,06,13,12,45,441.80
2007,06,13,12,46,426.00
2007,06,13,12,47,443.10
2007,06,13,12,48,504.00
2007,06,13,12,49,504.00
2007,06,13,12,50,504.00
2007,06,13,12,51,504.00
2007,06,13,12,52,445.20
2007,06,13,12,53,346.20
2007,06,13,12,54,317.40
2007,06,13,12,55,302.00
2007,06,13,12,56,702.70
2007,06,13,12,57,1169.00
2007,06,13,12,58,1190.00
2007,06,13,12,59,862.20
2007,06,13,13,00,594.00
2007,06,13,13,01,594.00
2007,06,13,13,02,594.00
2007,06,13,13,03,594.00
2007,06,13,13,04,991.80
2007,06,13,13,05,1159.30
2007,06,13,13,06,1089.10
2007,06,13,13,07,1061.30
2007,06,13,13,08,1046.00
2007,06,13,13,09,1034.50
2007,06,13,13,10,1030.50
2007,06,13,13,11,1031.60
2007,06,13,13,12,1033.60
2007,06,13,13,13,1036.60
2007,06,13,13,14,1037.00
2007,06,13,13,15,1035.30
2007,06,13,13,16,1034.10
2007,06,13,13,17,1043.00
2007,06,13,13,18,1061.10
2007,06,13,13,19,1115.20
2007,06,13,13,20,1204.00
2007,06,13,13,21,1204.00
2007,06,13,13,22,1204.00
2007,06,13,13,23,1204.00
2007,06,13,13,24,1204.00
2007,06,13,13,25,1204.00
2007,06,13,13,26,1186.70
2007,06,13,13,27,1094.60
2007,06,13,13,28,1160.00
2007,06,13,13,29,1160.00
2007,06,13,13,30,1160.00
2007,06,13,13,31,1152.50
2007,06,13,13,32,1126.00
2007,06,13,13,33,1103.50
2007,06,13,13,34,1078.10
2007,06,13,13,35,1076.00
2007,06,13,13,36,1076.00
2007,06,13,13,37,1093.20
2007,06,13,13,38,1125.00
2007,06,13,13,39,1125.00
2007,06,13,13,40,1113.80
2007,06,13,13,41,1100.00
2007,06,13,13,42,1100.00
2007,06,13,13,43,1100.00
2007,06,13,13,44,1118.50
2007,06,13,13,45,1120.50
2007,06,13,13,46,1107.00
2007,06,13,13,47,1107.00
2007,06,13,13,48,1100.10
2007,06,13,13,49,1093.80
2007,06,13,13,50,1086.50
2007,06,13,13,51,1072.90
2007,06,13,13,52,1057.90
2007,06,13,13,53,1055.10
2007,06,13,13,54,1063.70
2007,06,13,13,55,1070.70
2007,06,13,13,56,1114.30
2007,06,13,13,57,1135.60
2007,06,13,13,58,1125.60
2007,06,13,13,59,1123.00
2007,06,13,14,00,1123.00
2007,06,13,14,01,1118.80
2007,06,13,14,02,1107.70
2007,06,13,14,03,1106.00
2007,06,13,14,04,1106.00
2007,06,13,14,05,1106.00
2007,06,13,14,06,1106.00
2007,06,13,14,07,1106.00
2007,06,13,14,08,1106.00
2007,06,13,14,09,1106.00
2007,06,13,14,10,1106.00
2007,06,13,14,11,1127.90
2007,06,13,14,12,1325.00
2007,06,13,14,13,1325.00
2007,06,13,14,14,1325.00
2007,06,13,14,15,1325.00
2007,06,13,14,16,1325.00
2007,06,13,14,17,1156.60
2007,06,13,14,18,472.20
2007,06,13,14,19,425.50
2007,06,13,14,20,413.80
2007,06,13,14,21,408.20
2007,06,13,14,22,401.60
2007,06,13,14,23,396.00
2007,06,13,14,24,396.00
2007,06,13,14,25,396.00
2007,06,13,14,26,407.60
2007,06,13,14,27,413.40
2007,06,13,14,28,396.00
2007,06,13,14,29,396.00
2007,06,13,14,30,827.90
2007,06,13,14,31,1303.00
2007,06,13,14,32,1131.70
2007,06,13,14,33,976.00
2007,06,13,14,34,642.40
2007,06,13,14,35,420.00
2007,06,13,14,36,420.00
2007,06,13,14,37,420.00
2007,06,13,14,38,420.00
2007,06,13,14,39,454.50
2007,06,13,14,40,433.80
2007,06,13,14,41,428.90
2007,06,13,14,42,445.20
2007,06,13,14,43,420.80
2007,06,13,14,44,387.80
2007,06,13,14,45,365.00
2007,06,13,14,46,343.20
2007,06,13,14,47,330.50
2007,06,13,14,48,336.60
2007,06,13,14,49,361.80
2007,06,13,14,50,366.00
2007,06,13,14,51,366.00
2007,06,13,14,52,432.50
2007,06,13,14,53,436.00
2007,06,13,14,54,436.20
2007,06,13,14,55,441.00
2007,06,13,14,56,395.40
2007,06,13,14,57,362.20
2007,06,13,14,58,326.00
2007,06,13,14,59,294.40
2007,06,13,15,00,269.90
2007,06,13,15,01,255.60
2007,06,13,15,02,244.00
2007,06,13,15,03,246.50
2007,06,13,15,04,261.80
2007,06,13,15,05,283.80
2007,06,13,15,06,298.10
2007,06,13,15,07,321.00
2007,06,13,15,08,344.70
2007,06,13,15,09,364.10
2007,06,13,15,10,384.40
2007,06,13,15,11,407.10
2007,06,13,15,12,403.10
2007,06,13,15,13,372.30
2007,06,13,15,14,340.00
2007,06,13,15,15,316.10
2007,06,13,15,16,309.00
2007,06,13,15,17,312.30
2007,06,13,15,18,316.00
2007,06,13,15,19,316.00
2007,06,13,15,20,316.00
2007,06,13,15,21,338.50
2007,06,13,15,22,358.80
2007,06,13,15,23,360.00
2007,06,13,15,24,360.00
2007,06,13,15,25,360.00
2007,06,13,15,26,952.20
2007,06,13,15,27,1264.70
2007,06,13,15,28,1262.00
2007,06,13,15,29,1262.00
2007,06,13,15,30,1262.00
2007,06,13,15,31,595.20
2007,06,13,15,32,349.00
2007,06,13,15,33,326.20
2007,06,13,15,34,322.00
2007,06,13,15,35,322.00
2007,06,13,15,36,322.00
2007,06,13,15,37,386.40
2007,06,13,15,38,452.10
2007,06,13,15,39,415.80
2007,06,13,15,40,396.70
2007,06,13,15,41,353.00
2007,06,13,15,42,320.00
2007,06,13,15,43,304.00
2007,06,13,15,44,304.00
2007,06,13,15,45,304.00
2007,06,13,15,46,304.00
2007,06,13,15,47,347.70
2007,06,13,15,48,610.00
2007,06,13,15,49,610.00
2007,06,13,15,50,610.00
2007,06,13,15,51,610.00
2007,06,13,15,52,551.00
2007,06,13,15,53,354.10
2007,06,13,15,54,323.80
2007,06,13,15,55,297.50
2007,06,13,15,56,298.20
2007,06,13,15,57,309.80
2007,06,13,15,58,316.30
2007,06,13,15,59,345.20
2007,06,13,16,00,383.00
2007,06,13,16,01,383.00
2007,06,13,16,02,713.80
2007,06,13,16,03,1079.30
2007,06,13,16,04,1032.00
2007,06,13,16,05,983.10
2007,06,13,16,06,929.60
2007,06,13,16,07,919.30
2007,06,13,16,08,923.50
2007,06,13,16,09,928.00
2007,06,13,16,10,930.40
2007,06,13,16,11,945.00
2007,06,13,16,12,973.20
2007,06,13,16,13,984.00
2007,06,13,16,14,984.00
2007,06,13,16,15,984.00
2007,06,13,16,16,984.00
2007,06,13,16,17,954.00
2007,06,13,16,18,944.00
2007,06,13,16,19,491.20
2007,06,13,16,20,378.00
2007,06,13,16,21,533.50
2007,06,13,16,22,588.70
2007,06,13,16,23,592.00
2007,06,13,16,24,592.00
2007,06,13,16,25,592.00
2007,06,13,16,26,592.00
2007,06,13,16,27,592.00
2007,06,13,16,28,592.00
2007,06,13,16,29,592.00
2007,06,13,16,30,584.00
2007,06,13,16,31,432.00
2007,06,13,16,32,424.50
2007,06,13,16,33,357.00
2007,06,13,16,34,348.00
2007,06,13,16,35,296.20
2007,06,13,16,36,306.00
2007,06,13,16,37,295.00
2007,06,13,16,38,295.00
2007,06,13,16,39,295.00
2007,06,13,16,40,295.00
2007,06,13,16,41,295.00
2007,06,13,16,42,471.70
2007,06,13,16,43,884.00
2007,06,13,16,44,884.00
2007,06,13,16,45,884.00
2007,06,13,16,46,884.00
2007,06,13,16,47,884.00
2007,06,13,16,48,802.40
2007,06,13,16,49,718.20
2007,06,13,16,50,764.10
2007,06,13,16,51,770.20
2007,06,13,16,52,785.00
2007,06,13,16,53,785.50
2007,06,13,16,54,768.50
2007,06,13,16,55,757.30
2007,06,13,16,56,756.00
2007,06,13,16,57,756.00
2007,06,13,16,58,760.20
2007,06,13,16,59,770.80
2007,06,13,17,00,719.10
2007,06,13,17,01,689.00
2007,06,13,17,02,689.00